SCP
1 0 0 0 0 0 0 0 -0 0 -0 -0 0 -0 -0 0 0 0 0 0 0 0
1 0 0 0 0 0 0 0 0 -0 0 -0 -0 0 0 0 0 0 0 0 0 0
0 0 0 0 0 0 0 0 -0 0 -0 0 0 0 0 0 0 0 0 0 0 0
0 0 0 0 0 0 0 0 0 0 0 0 0 0 0 0 0 0 0 0 0 0
0 0 0 0 0 0 0 0 0 0 0 0 0 0 0 0 0 0 0 0 0 0
0 0 0 0 0 0 0 0 0 0 0 0 0 0 0 0 0 0 0 0 0 0
0 0 0 0 0 0 0 0 0 0 0 0 0 0 0 0 0 0 0 0 0 0
0 0 0 0 0 0 0 0 0 0 0 0 0 0 0 0 0 0 0 0 0 0
0 0 0 0 0 0 0 0 0 0 0 0 0 0 0 0 0 0 0 0 0 0
0 0 0 0 0 0 0 0 0 0 0 0 0 0 0 0 0 0 0 0 0 0
0 0 0 0 0 0 0 0 0 0 0 0 0 0 0 0 0 0 0 0 0 0
0 0 0 0 0 0 0 0 0 0 0 0 0 0 0 0 0 0 0 0 0 0
0 0 0 0 0 0 0 0 0 0 0 0 0 0 0 0 0 0 0 0 0 0
0 0 0 0 0 0 0 0 0 0 0 0 0 0 0 0 0 0 0 0 0 0
Wind_Speed_500mb
32 26 34 34 33 32 48 46 34 32 23 14 15 13 12 13 14 16 19 18 13 7
36 40 40 40 44 52 49 45 22 22 17 16 17 14 10 12 15 16 13 13 8 2
43 44 39 40 43 48 46 34 25 15 20 19 14 8 8 13 12 10 5 3 4 4
51 47 46 50 56 53 36 29 19 20 17 11 6 8 10 8 7 5 6 6 6 7
54 51 50 56 57 47 37 28 24 19 13 8 8 8 4 1 3 6 6 4 3 6
59 53 50 49 48 40 34 30 23 15 9 7 6 5 4 5 4 6 2 5 2 6
55 51 49 48 43 39 31 24 16 10 7 7 7 7 6 4 4 1 1 4 3 8
61 57 53 46 41 35 26 18 12 11 11 11 10 9 10 5 3 2 3 3 5 16
62 54 47 42 36 29 23 20 18 18 16 13 11 8 7 9 5 5 1 3 9 11
56 49 43 38 32 28 24 22 20 19 16 14 13 11 10 7 6 7 7 10 12 12
49 47 41 36 31 28 26 24 23 21 18 14 12 11 10 7 4 3 3 7 10 13
46 44 40 36 33 30 29 25 23 20 18 15 13 12 11 12 5 4 5 13 14 18
43 41 39 37 33 31 28 27 20 18 15 13 11 9 8 10 5 6 7 12 22 27
44 43 38 35 30 27 24 22 19 16 16 13 12 12 12 10 12 8 9 12 15 26
Wind_Direction_500mb
189 176 175 182 169 163 154 154 159 165 179 189 252 221 222 250 265 287 296 301 290 277
160 177 169 160 165 164 165 166 163 161 200 221 193 206 224 264 283 295 300 307 317 332
180 175 167 162 162 164 158 167 166 180 176 174 190 215 263 289 299 301 318 73 50 16
171 161 162 162 164 163 169 171 174 172 175 181 219 270 282 286 307 345 32 47 31 351
159 155 153 155 164 172 173 174 171 171 177 201 243 269 280 301 39 67 61 2 27 342
149 150 152 155 162 164 164 162 166 173 198 238 235 201 162 133 96 71 46 254 269 333
152 153 150 147 147 149 153 157 164 181 196 179 156 158 148 140 80 140 213 240 320 337
149 148 147 145 145 146 146 151 155 164 164 158 167 169 168 150 131 210 232 327 359 315
146 143 143 141 141 145 148 152 149 143 141 139 130 126 137 143 165 173 122 334 327 350
139 131 130 131 132 133 133 127 118 114 113 109 104 96 95 119 152 231 291 307 328 2
128 126 123 125 127 122 116 113 110 105 98 93 87 78 74 74 79 52 12 313 338 349
128 125 122 120 118 115 111 102 96 95 93 81 77 67 62 81 51 35 18 329 329 332
125 125 123 119 114 107 100 96 88 82 77 75 61 52 50 77 35 14 3 12 354 334
128 125 123 117 112 107 106 91 77 70 64 57 59 47 45 64 50 46 15 359 351 329
Wind_Speed_850mb
32 26 34 34 33 32 48 46 34 32 23 14 15 13 12 13 14 16 19 18 13 7
36 40 40 40 44 52 49 45 22 22 17 16 17 14 10 12 15 16 13 13 8 2
43 44 39 40 43 48 46 34 25 15 20 19 14 8 8 13 12 10 5 3 4 4
51 47 46 50 56 53 36 29 19 20 17 11 6 8 10 8 7 5 6 6 6 7
54 51 50 56 57 47 37 28 24 19 13 8 8 8 4 1 3 6 6 4 3 6
59 53 50 49 48 40 34 30 23 15 9 7 6 5 4 5 4 6 2 5 2 6
55 51 49 48 43 39 31 24 16 10 7 7 7 7 6 4 4 1 1 4 3 8
61 57 53 46 41 35 26 18 12 11 11 11 10 9 10 5 3 2 3 3 5 16
62 54 47 42 36 29 23 20 18 18 16 13 11 8 7 9 5 5 1 3 9 11
56 49 43 38 32 28 24 22 20 19 16 14 13 11 10 7 6 7 7 10 12 12
49 47 41 36 31 28 26 24 23 21 18 14 12 11 10 7 4 3 3 7 10 13
46 44 40 36 33 30 29 25 23 20 18 15 13 12 11 12 5 4 5 13 14 18
43 41 39 37 33 31 28 27 20 18 15 13 11 9 8 10 5 6 7 12 22 27
44 43 38 35 30 27 24 22 19 16 16 13 12 12 12 10 12 8 9 12 15 26
Wind_Direction_850mb
189 176 175 182 169 163 154 154 159 165 179 189 252 221 222 250 265 287 296 301 290 277
160 177 169 160 165 164 165 166 163 161 200 221 193 206 224 264 283 295 300 307 317 332
180 175 167 162 162 164 158 167 166 180 176 174 190 215 263 289 299 301 318 73 50 16
171 161 162 162 164 163 169 171 174 172 175 181 219 270 282 286 307 345 32 47 31 351
159 155 153 155 164 172 173 174 171 171 177 201 243 269 280 301 39 67 61 2 27 342
149 150 152 155 162 164 164 162 166 173 198 238 235 201 162 133 96 71 46 254 269 333
152 153 150 147 147 149 153 157 164 181 196 179 156 158 148 140 80 140 213 240 320 337
149 148 147 145 145 146 146 151 155 164 164 158 167 169 168 150 131 210 232 327 359 315
146 143 143 141 141 145 148 152 149 143 141 139 130 126 137 143 165 173 122 334 327 350
139 131 130 131 132 133 133 127 118 114 113 109 104 96 95 119 152 231 291 307 328 2
128 126 123 125 127 122 116 113 110 105 98 93 87 78 74 74 79 52 12 313 338 349
128 125 122 120 118 115 111 102 96 95 93 81 77 67 62 81 51 35 18 329 329 332
125 125 123 119 114 107 100 96 88 82 77 75 61 52 50 77 35 14 3 12 354 334
128 125 123 117 112 107 106 91 77 70 64 57 59 47 45 64 50 46 15 359 351 329